KG6YVD-10 Weather Reports


time (UTC)temp
C
wind
direction
speed
KPH
gust
KPH
rain 1hr
cm
rain 24hr
cm
rain mn
cm
humidity
%
barometer
mb
20260507150827 16 30 0.0 0.0 0.00 0.00 0.00 75 1014.4
20260507150334 16 30 0.0 0.0 0.00 0.00 0.00 74 1014.4
20260507145903 16 30 0.0 0.0 0.00 0.00 0.00 75 1014.4
20260507145331 16 30 0.0 0.0 0.00 0.00 0.00 76 1014.4
20260507144841 16 30 0.0 0.0 0.00 0.00 0.00 76 1014.4
20260507144327 16 30 0.0 0.0 0.00 0.00 0.00 75 1014.2
20260507143834 16 30 0.0 0.0 0.00 0.00 0.00 75 1014.2
20260507143401 16 30 0.0 0.0 0.00 0.00 0.00 75 1014.2
20260507142905 16 30 0.0 0.0 0.00 0.00 0.00 74 1014.3
20260507142332 16 30 0.0 0.0 0.00 0.00 0.00 75 1014.3
20260507141839 16 30 0.0 0.0 0.00 0.00 0.00 76 1014.3
20260507141348 15 30 0.0 0.0 0.00 0.00 0.00 77 1014.1
20260507140836 15 30 0.0 0.0 0.00 0.00 0.00 78 1014.1
20260507140323 15 30 0.0 0.0 0.00 0.00 0.00 80 1014.1
20260507135831 14 30 0.0 0.0 0.00 0.00 0.00 80 1013.9
20260507135338 14 30 0.0 0.0 0.00 0.00 0.00 81 1013.9
20260507134827 13 30 0.0 0.0 0.00 0.00 0.00 82 1013.9
20260507134352 13 30 0.0 0.0 0.00 0.00 0.00 82 1013.8
20260507133839 13 30 0.0 0.0 0.00 0.00 0.00 81 1013.8
20260507133327 13 30 0.0 0.0 0.00 0.00 0.00 81 1013.8
20260507132853 13 30 0.0 0.0 0.00 0.00 0.00 82 1013.8
20260507132339 13 30 0.0 0.0 0.00 0.00 0.00 81 1013.8
20260507131825 13 30 0.0 0.0 0.00 0.00 0.00 81 1013.8
20260507131332 13 30 0.0 1.6 0.00 0.00 0.00 81 1013.6
20260507130838 14 30 0.0 6.4 0.00 0.00 0.00 80 1013.6
20260507130348 14 30 3.2 4.8 0.00 0.00 0.00 80 1013.6
20260507125831 13 26 1.6 3.2 0.00 0.00 0.00 81 1013.6
20260507125357 13 27 0.0 3.2 0.00 0.00 0.00 81 1013.6
20260507124843 13 27 0.0 3.2 0.00 0.00 0.00 81 1013.6
20260507124330 13 30 0.0 4.8 0.00 0.03 0.00 81 1013.4
20260507123840 13 30 0.0 6.4 0.00 0.03 0.00 80 1013.4
20260507123327 13 17 0.0 6.4 0.00 0.03 0.00 81 1013.4
20260507122834 13 25 1.6 6.4 0.00 0.03 0.00 81 1013.3
20260507122338 13 26 0.0 6.4 0.00 0.03 0.00 81 1013.3
20260507121844 13 30 0.0 3.2 0.00 0.03 0.00 81 1013.3
20260507121331 13 30 0.0 8.0 0.00 0.03 0.00 81 1013.2
20260507120835 13 30 0.0 9.7 0.00 0.03 0.00 82 1013.2
20260507120340 13 5 1.6 14.5 0.00 0.03 0.00 82 1013.2
20260507115826 13 10 4.8 14.5 0.00 0.03 0.00 82 1013.2
20260507115332 13 44 3.2 12.9 0.00 0.03 0.00 82 1013.2
20260507114836 13 38 4.8 17.7 0.00 0.03 0.00 81 1013.2
20260507114341 13 20 1.6 17.7 0.00 0.03 0.00 81 1013.3
20260507113831 13 21 3.2 9.7 0.00 0.03 0.00 81 1013.3
20260507113358 13 21 3.2 9.7 0.00 0.03 0.00 80 1013.3
20260507112826 13 33 1.6 9.7 0.00 0.03 0.00 80 1014.3
20260507112336 13 21 1.6 9.7 0.00 0.03 0.00 79 1014.3
20260507111825 13 9 1.6 6.4 0.00 0.03 0.00 79 1014.3
20260507111332 13 344 0.0 0.0 0.00 0.03 0.00 79 1014.3
20260507110839 13 344 0.0 0.0 0.00 0.03 0.00 80 1014.3
20260507110344 13 344 0.0 6.4 0.00 0.03 0.00 79 1014.3
20260507105848 13 344 1.6 8.0 0.00 0.03 0.00 78 1014.3
20260507105333 13 355 1.6 4.8 0.00 0.03 0.00 79 1014.3
20260507104840 13 25 0.0 9.7 0.00 0.03 0.00 78 1014.3
20260507104329 13 25 1.6 9.7 0.00 0.03 0.00 78 1014.5
20260507103835 13 19 3.2 4.8 0.00 0.03 0.00 77 1014.5
20260507103329 13 348 3.2 6.4 0.00 0.03 0.00 77 1014.5
20260507102834 13 330 1.6 6.4 0.00 0.03 0.00 76 1014.7
20260507102339 13 304 0.0 4.8 0.00 0.03 0.00 76 1014.7
20260507101825 13 301 0.0 9.7 0.00 0.03 0.00 76 1014.7
20260507101332 14 288 1.6 9.7 0.00 0.03 0.00 76 1014.7
20260507100839 14 288 3.2 8.0 0.00 0.03 0.00 75 1014.7
20260507100326 14 288 4.8 8.0 0.00 0.03 0.00 75 1014.7
20260507095830 14 288 4.8 8.0 0.00 0.03 0.00 75 1014.6
20260507095338 14 288 1.6 8.0 0.00 0.03 0.00 74 1014.6
20260507094827 14 288 1.6 8.0 0.00 0.03 0.00 74 1014.6
20260507094333 13 284 0.0 0.0 0.00 0.03 0.00 75 1014.7
20260507093843 13 284 0.0 0.0 0.00 0.03 0.00 76 1014.7
20260507093331 14 285 0.0 0.0 0.00 0.03 0.00 76 1014.7
20260507092835 14 284 0.0 0.0 0.00 0.03 0.00 76 1015.0
20260507092341 14 284 0.0 0.0 0.00 0.03 0.00 76 1015.0
20260507091826 13 284 0.0 0.0 0.00 0.03 0.00 77 1015.0
20260507091336 13 285 0.0 0.0 0.00 0.03 0.00 75 1015.0
20260507090826 14 285 0.0 0.0 0.00 0.03 0.00 74 1015.0
20260507090332 14 285 0.0 0.0 0.00 0.03 0.00 73 1015.0
20260507085837 14 285 0.0 0.0 0.00 0.03 0.00 74 1015.0
20260507085404 14 284 0.0 0.0 0.00 0.03 0.00 74 1015.0
20260507084830 15 285 0.0 1.6 0.00 0.03 0.00 73 1015.0
20260507084336 15 284 0.0 8.0 0.00 0.03 0.00 74 1015.1
20260507083826 15 285 1.6 8.0 0.00 0.03 0.00 74 1015.1
20260507083333 15 285 0.0 3.2 0.00 0.03 0.00 74 1015.1
20260507082838 15 285 0.0 6.4 0.00 0.03 0.00 74 1015.2
20260507082327 15 285 1.6 6.4 0.00 0.03 0.00 75 1015.2
20260507081833 15 172 0.0 0.0 0.00 0.03 0.00 76 1015.2
20260507081340 15 173 0.0 0.0 0.00 0.03 0.00 76 1015.4
20260507080826 14 173 0.0 0.0 0.00 0.03 0.00 77 1015.4
20260507080332 14 173 0.0 0.0 0.00 0.03 0.00 76 1015.4
20260507075837 13 173 0.0 0.0 0.00 0.03 0.00 76 1015.4
20260507075327 13 173 0.0 0.0 0.00 0.03 0.00 75 1015.4
20260507074836 14 173 0.0 0.0 0.00 0.03 0.00 75 1015.4
20260507074343 14 173 0.0 0.0 0.00 0.03 0.00 74 1015.5
20260507073829 14 173 0.0 0.0 0.00 0.03 0.00 74 1015.5
20260507073336 14 173 0.0 0.0 0.00 0.03 0.00 74 1015.5
20260507072901 14 173 0.0 0.0 0.00 0.03 0.00 73 1015.6
20260507072325 14 173 0.0 0.0 0.00 0.03 0.00 72 1015.6
20260507071831 14 173 0.0 0.0 0.00 0.03 0.00 71 1015.6
20260507071336 14 173 0.0 0.0 0.00 0.03 0.00 72 1015.8
20260507070827 14 173 0.0 0.0 0.00 0.03 0.00 73 1015.8
20260507070336 14 173 0.0 0.0 0.00 0.03 0.00 72 1015.8
20260507065901 14 173 0.0 0.0 0.00 0.03 0.00 73 1015.7
20260507065330 14 173 0.0 0.0 0.00 0.03 0.00 73 1015.7
20260507064836 14 173 0.0 0.0 0.00 0.03 0.00 73 1015.7
20260507064322 14 172 0.0 0.0 0.00 0.03 0.00 73 1015.8
20260507063852 14 172 0.0 0.0 0.00 0.03 0.00 72 1015.8
20260507063338 14 173 0.0 0.0 0.00 0.03 0.00 72 1015.8
20260507062843 14 173 0.0 0.0 0.00 0.03 0.00 72 1015.7
20260507062350 15 173 0.0 0.0 0.00 0.03 0.00 73 1015.7
20260507061836 15 173 0.0 0.0 0.00 0.03 0.00 72 1015.7
20260507061343 15 173 0.0 0.0 0.00 0.03 0.00 72 1016.0
20260507060829 15 173 0.0 0.0 0.00 0.03 0.00 72 1016.0
20260507060355 15 173 0.0 0.0 0.00 0.03 0.00 71 1016.0
20260507055840 15 173 0.0 0.0 0.00 0.03 0.03 71 1015.1
20260507055331 15 173 0.0 0.0 0.00 0.03 0.03 70 1015.1
20260507054836 15 173 0.0 0.0 0.00 0.03 0.03 71 1015.1
20260507054341 15 173 0.0 0.0 0.00 0.03 0.03 72 1015.2
20260507053826 15 173 0.0 0.0 0.00 0.03 0.03 73 1015.2
20260507053332 15 173 0.0 0.0 0.00 0.03 0.03 73 1015.2
20260507052858 15 173 0.0 0.0 0.00 0.03 0.03 72 1015.2
20260507052344 15 173 0.0 0.0 0.00 0.03 0.03 71 1015.2
20260507051829 15 173 0.0 0.0 0.00 0.03 0.03 69 1015.2
20260507051356 15 173 0.0 0.0 0.00 0.03 0.03 68 1015.6
20260507050842 14 173 0.0 0.0 0.00 0.03 0.03 69 1015.6
20260507050329 14 173 0.0 0.0 0.00 0.03 0.03 70 1015.6
20260507045854 14 173 0.0 0.0 0.00 0.03 0.03 71 1015.7
20260507045341 13 173 0.0 0.0 0.00 0.03 0.03 71 1015.7
20260507044845 13 173 0.0 0.0 0.00 0.03 0.03 72 1015.7
20260507044330 13 174 0.0 0.0 0.00 0.03 0.03 74 1015.7
20260507043841 13 173 0.0 0.0 0.00 0.03 0.03 75 1015.7
20260507043351 13 174 0.0 0.0 0.00 0.03 0.03 78 1015.7
20260507042835 13 173 0.0 0.0 0.00 0.03 0.03 78 1015.5
20260507042341 13 173 0.0 0.0 0.00 0.03 0.03 78 1015.5
20260507041827 13 173 0.0 0.0 0.00 0.03 0.03 78 1015.5
20260507041333 13 173 0.0 3.2 0.00 0.03 0.03 79 1015.5
20260507040841 13 173 0.0 3.2 0.00 0.03 0.03 79 1015.5
20260507040328 13 172 0.0 1.6 0.00 0.03 0.03 81 1015.5
20260507035833 13 172 0.0 1.6 0.00 0.03 0.03 80 1015.2
20260507035340 13 172 0.0 1.6 0.00 0.03 0.03 79 1015.2
20260507034826 13 220 0.0 1.6 0.00 0.03 0.03 77 1015.2
20260507034351 13 221 0.0 1.6 0.00 0.03 0.03 77 1015.2
20260507033842 13 221 0.0 1.6 0.00 0.03 0.03 78 1015.2
20260507033329 14 221 0.0 1.6 0.00 0.03 0.03 77 1015.2
20260507032856 14 221 0.0 1.6 0.00 0.03 0.03 75 1015.2
20260507032401 14 221 0.0 3.2 0.00 0.03 0.03 75 1015.2
20260507031826 14 221 1.6 3.2 0.00 0.03 0.03 75 1015.2
20260507031332 14 248 0.0 3.2 0.00 0.03 0.03 75 1015.2
20260507030839 14 248 0.0 4.8 0.00 0.03 0.03 75 1015.2
20260507030344 14 248 0.0 4.8 0.00 0.03 0.03 75 1015.2
20260507025830 14 240 0.0 6.4 0.00 0.03 0.03 74 1014.9
20260507025337 15 238 0.0 4.8 0.00 0.03 0.03 73 1014.9
20260507024844 15 225 1.6 6.4 0.00 0.03 0.03 71 1014.9
20260507024331 15 253 0.0 6.4 0.00 0.03 0.03 71 1014.7
20260507023837 15 258 1.6 6.4 0.00 0.03 0.03 70 1014.7
20260507023344 15 250 3.2 8.0 0.00 0.03 0.03 69 1014.7
20260507022830 15 234 1.6 8.0 0.00 0.03 0.03 69 1014.5
20260507022337 16 246 3.2 6.4 0.00 0.03 0.03 68 1014.5
20260507021823 16 247 3.2 9.7 0.00 0.03 0.03 68 1014.5
20260507021333 16 219 3.2 9.7 0.00 0.03 0.03 67 1014.7
20260507020840 16 234 4.8 11.3 0.00 0.03 0.03 67 1014.7
20260507020325 17 237 6.4 11.3 0.00 0.03 0.03 66 1014.7
20260507015829 17 226 3.2 9.7 0.00 0.03 0.03 66 1014.5
20260507015338 17 217 1.6 9.7 0.00 0.03 0.03 67 1014.5
20260507014827 17 211 3.2 9.7 0.00 0.03 0.03 67 1014.5
20260507014334 17 219 4.8 9.7 0.00 0.03 0.03 67 1014.5
20260507013841 17 219 3.2 11.3 0.00 0.03 0.03 67 1014.5
20260507013351 18 219 4.8 11.3 0.00 0.03 0.03 66 1014.5
20260507012835 18 225 3.2 12.9 0.00 0.03 0.03 67 1014.3
20260507012341 18 219 3.2 16.1 0.00 0.03 0.03 67 1014.3
20260507011829 18 229 4.8 16.1 0.00 0.03 0.03 67 1014.3
20260507011355 18 232 3.2 11.3 0.00 0.03 0.03 66 1014.5
20260507010841 18 203 3.2 11.3 0.00 0.03 0.03 66 1014.5
20260507010347 18 222 3.2 16.1 0.00 0.03 0.03 67 1014.5
20260507005830 18 224 4.8 16.1 0.00 0.03 0.03 66 1014.3
20260507005336 19 222 4.8 11.3 0.00 0.03 0.03 65 1014.3
20260507004826 19 225 4.8 11.3 0.00 0.03 0.03 65 1014.3
20260507004350 19 211 3.2 16.1 0.00 0.03 0.03 66 1014.1
20260507003837 18 217 6.4 17.7 0.00 0.03 0.03 66 1014.1
20260507003342 19 225 6.4 17.7 0.00 0.03 0.03 65 1014.1
20260507002828 19 219 4.8 17.7 0.00 0.03 0.03 65 1014.1
20260507002355 19 215 4.8 17.7 0.00 0.03 0.03 65 1014.1
20260507001840 20 218 4.8 16.1 0.00 0.03 0.03 64 1014.1
20260507001328 20 223 6.4 19.3 0.00 0.03 0.03 64 1013.8
20260507000835 20 218 12.9 19.3 0.00 0.03 0.03 62 1013.8
20260507000325 20 243 8.0 17.7 0.00 0.03 0.03 63 1013.8
20260506235831 20 198 6.4 17.7 0.00 0.03 0.03 62 1013.8
20260506235339 20 238 3.2 17.7 0.00 0.03 0.03 63 1013.8
20260506234832 20 202 9.7 22.5 0.00 0.03 0.03 62 1013.8
20260506234338 20 225 4.8 22.5 0.00 0.03 0.03 62 1013.7
20260506233824 20 217 8.0 17.7 0.00 0.03 0.03 62 1013.7
20260506233333 21 211 8.0 17.7 0.00 0.03 0.03 62 1013.7
20260506232840 21 257 8.0 17.7 0.00 0.03 0.03 61 1013.8
20260506232328 21 225 4.8 17.7 0.00 0.03 0.03 62 1013.8
20260506231835 21 233 8.0 17.7 0.00 0.03 0.03 61 1013.8
20260506231403 21 228 4.8 19.3 0.00 0.03 0.03 61 1013.7
20260506230827 21 229 11.3 19.3 0.00 0.03 0.03 61 1013.7
20260506230334 21 212 9.7 17.7 0.00 0.03 0.03 62 1013.7
20260506225839 21 215 6.4 19.3 0.00 0.03 0.03 62 1013.7
20260506225349 21 209 4.8 20.9 0.00 0.03 0.03 61 1013.7
20260506224835 21 257 6.4 16.1 0.00 0.03 0.03 61 1013.7
20260506224341 21 207 4.8 17.7 0.00 0.03 0.03 62 1013.9
20260506223827 21 229 6.4 17.7 0.00 0.03 0.03 61 1013.9
20260506223336 21 210 4.8 22.5 0.00 0.03 0.03 61 1013.9
20260506222843 21 244 8.0 22.5 0.00 0.03 0.03 61 1014.1
20260506222330 21 262 9.7 19.3 0.00 0.03 0.03 60 1014.1
20260506221857 21 276 4.8 24.1 0.00 0.03 0.03 61 1014.1
20260506221403 21 243 8.0 24.1 0.00 0.03 0.03 60 1014.2
20260506220828 21 277 3.2 19.3 0.00 0.03 0.03 60 1014.2
20260506220334 21 238 8.0 20.9 0.00 0.03 0.03 61 1014.2
20260506215839 21 209 6.4 20.9 0.00 0.03 0.03 61 1014.2
20260506215329 21 244 3.2 25.7 0.00 0.03 0.03 61 1014.2
20260506214836 21 242 8.0 25.7 0.00 0.03 0.03 61 1014.2
20260506214322 21 229 8.0 20.9 0.00 0.03 0.03 60 1014.3
20260506213830 21 219 6.4 19.3 0.00 0.03 0.03 59 1014.3
20260506213339 21 241 8.0 19.3 0.00 0.03 0.03 59 1014.3
20260506212904 21 244 4.8 16.1 0.00 0.03 0.03 59 1014.4
20260506212329 22 202 6.4 22.5 0.00 0.03 0.03 58 1014.4
20260506211839 21 261 8.0 22.5 0.00 0.03 0.03 58 1014.4
20260506211325 21 229 8.0 22.5 0.00 0.03 0.03 59 1014.5
20260506210834 21 205 6.4 17.7 0.00 0.03 0.03 59 1014.5
20260506210401 21 232 6.4 19.3 0.00 0.03 0.03 58 1014.5
20260506205830 21 250 9.7 22.5 0.00 0.03 0.03 57 1014.5
20260506205337 21 229 6.4 22.5 0.00 0.03 0.03 58 1014.5
20260506204844 21 219 4.8 22.5 0.00 0.03 0.03 57 1014.5
20260506204329 22 244 6.4 22.5 0.00 0.03 0.03 56 1014.6
20260506203835 22 230 8.0 20.9 0.00 0.03 0.03 56 1014.6
20260506203405 22 232 6.4 20.9 0.00 0.03 0.03 55 1014.6
20260506202851 22 290 4.8 16.1 0.00 0.03 0.03 54 1014.7
20260506202356 22 206 3.2 16.1 0.00 0.03 0.03 52 1014.7
20260506201844 22 276 1.6 9.7 0.00 0.03 0.03 48 1014.7
20260506201330 22 275 3.2 9.7 0.00 0.03 0.03 46 1014.8
20260506200835 22 273 1.6 8.0 0.00 0.03 0.03 49 1014.8
20260506200325 22 214 1.6 8.0 0.00 0.03 0.03 48 1014.8
20260506195830 22 269 1.6 11.3 0.00 0.03 0.03 48 1015.3
20260506195324 21 279 4.8 9.7 0.00 0.03 0.03 50 1015.3
20260506194852 21 215 3.2 9.7 0.00 0.03 0.03 50 1015.3
20260506194338 21 257 1.6 8.0 0.00 0.03 0.03 51 1015.4
20260506193844 21 272 1.6 4.8 0.00 0.03 0.03 51 1015.4
20260506193349 21 302 0.0 4.8 0.00 0.03 0.03 50 1015.4
20260506192834 21 300 0.0 6.4 0.00 0.03 0.03 50 1015.5
20260506192340 21 277 1.6 6.4 0.00 0.03 0.03 51 1015.5
20260506191825 21 319 1.6 6.4 0.00 0.03 0.03 51 1015.5
20260506191331 21 260 1.6 8.0 0.00 0.03 0.03 50 1015.5
20260506190840 21 263 1.6 8.0 0.00 0.03 0.03 51 1015.5
20260506190327 21 292 0.0 6.4 0.00 0.03 0.03 52 1015.5
20260506185832 21 290 0.0 8.0 0.00 0.03 0.03 53 1015.8
20260506185339 20 273 1.6 8.0 0.00 0.03 0.03 53 1015.8
20260506184850 20 215 1.6 4.8 0.00 0.03 0.03 53 1015.8
20260506184355 20 355 0.0 4.8 0.00 0.05 0.03 55 1016.2
20260506183839 20 268 0.0 4.8 0.00 0.05 0.03 54 1016.2
20260506183345 19 5 0.0 4.8 0.00 0.05 0.03 56 1016.2
20260506182830 18 360 1.6 4.8 0.00 0.05 0.03 57 1016.3
20260506182340 19 360 0.0 6.4 0.00 0.05 0.03 57 1016.3
20260506181827 18 360 0.0 6.4 0.00 0.05 0.03 58 1016.3
20260506181333 18 307 0.0 4.8 0.00 0.05 0.03 57 1016.4
20260506180839 18 253 0.0 3.2 0.00 0.05 0.03 59 1016.4
20260506180346 18 300 0.0 4.8 0.00 0.05 0.03 60 1016.4
20260506175831 18 261 0.0 4.8 0.00 0.05 0.03 62 1016.5
20260506175338 18 309 3.2 6.4 0.00 0.05 0.03 62 1016.5
20260506174904 17 260 1.6 6.4 0.00 0.05 0.03 62 1016.5
20260506174330 17 267 1.6 6.4 0.00 0.05 0.03 63 1016.6
20260506173839 17 310 1.6 6.4 0.00 0.05 0.03 62 1016.6
20260506173327 17 261 0.0 8.0 0.00 0.05 0.03 65 1016.6
20260506172834 17 252 1.6 8.0 0.00 0.05 0.03 63 1016.6
20260506172340 17 299 0.0 4.8 0.00 0.05 0.03 64 1016.6
20260506171827 17 271 1.6 4.8 0.00 0.05 0.03 64 1016.6
20260506171333 16 290 1.6 4.8 0.00 0.05 0.03 65 1016.7
20260506170839 16 279 0.0 4.8 0.00 0.05 0.03 67 1016.7
20260506170345 16 269 3.2 4.8 0.00 0.05 0.03 68 1016.7
20260506165830 16 273 1.6 6.4 0.00 0.05 0.03 69 1015.8
20260506165337 15 257 1.6 6.4 0.00 0.05 0.03 70 1015.8
20260506164904 15 258 1.6 4.8 0.00 0.05 0.03 72 1015.8
20260506164349 15 253 0.0 4.8 0.00 0.05 0.03 71 1015.9
20260506163855 15 252 1.6 4.8 0.00 0.05 0.03 73 1015.9
20260506163325 15 248 0.0 4.8 0.00 0.05 0.03 73 1015.9
20260506162831 15 236 1.6 4.8 0.00 0.05 0.03 74 1015.8
20260506162337 15 297 1.6 4.8 0.00 0.05 0.03 74 1015.8
20260506161844 15 298 0.0 4.8 0.00 0.05 0.03 74 1015.8
20260506161333 15 299 0.0 3.2 0.00 0.05 0.03 75 1015.7
20260506160839 15 299 0.0 1.6 0.00 0.05 0.03 75 1015.7
20260506160325 15 299 0.0 0.0 0.00 0.05 0.03 75 1015.7
20260506155834 15 299 0.0 0.0 0.00 0.05 0.03 75 1015.7
20260506155343 15 299 0.0 0.0 0.00 0.05 0.03 76 1015.7
20260506154830 15 299 0.0 0.0 0.00 0.05 0.03 76 1015.7
20260506154336 14 299 0.0 0.0 0.00 0.05 0.03 77 1015.7
20260506153901 14 299 0.0 0.0 0.00 0.05 0.03 77 1015.7
20260506153329 14 299 0.0 0.0 0.00 0.05 0.03 77 1015.7
20260506152837 14 299 0.0 0.0 0.00 0.05 0.03 76 1015.7
20260506152324 14 299 0.0 0.0 0.00 0.05 0.03 77 1015.7
20260506151833 14 299 0.0 1.6 0.00 0.05 0.03 76 1015.7
20260506151340 14 299 0.0 1.6 0.00 0.05 0.03 76 1015.7